Estación municipal de St. Julià de Vilatorta (Osona, E.N.Guilleries-Savassona)

Consulta los datos en tiempo real de la estación municipal de St. Julià de Vilatorta





Hora UTC 12:25
Temperatura 32.7 ºC
Subsuelo 10 cm 43.4 ºC
Humedad 32.6 %
Presión 1020.3 hPa
Pluja 0.0 mm
Velocidad viento 9.4 km/h
Dirección viento S
Radiación solar 849.0 W/m²
Fuel 4.5 %

Webcam

Datos diarios 2026-09-02



Hora UTC (invierno +1h; verano +2h)
Temperatura (ºC) Humedad (%) Presión (hPa) Velocidad viento (km/h) Precipitación (mm) Fuel (%) Radiación solar (W/m²)
Hora UTC Aire Subsuelo 10 cm Humedad Presión Vel. Dir. Vel. Max Dir. Intent. máx 5 min. Fuel Rad. Sol.
00:05 17.4 14.5 89.0 1020.3 1.5 S 1.5 S 0.0 8.8 0.0
00:10 17.2 14.5 89.7 1020.3 2.2 SSE 3.3 S 0.0 9.0 0.0
00:15 17.1 14.4 90.3 1020.3 2.9 SSE 5.6 S 0.0 8.2 0.1
00:20 17.2 14.1 90.6 1020.3 2.7 S 4.3 SSW 0.0 8.3 0.2
00:25 17.2 14.2 90.5 1020.4 3.2 SSE 5.1 SSE 0.0 9.1 0.1
00:30 17.3 14.3 91.1 1020.4 2.3 SSE 4.6 SSW 0.0 9.2 0.3
00:35 17.4 14.3 91.0 1020.4 1.2 SE 1.9 SE 0.0 9.2 0.2
00:40 17.4 14.1 90.5 1020.4 1.6 ESE 2.9 SE 0.0 9.3 0.0
00:45 17.3 13.9 91.3 1020.4 3.7 E 6.7 E 0.0 9.3 0.3
00:50 17.3 13.9 91.4 1020.4 4.9 E 8.0 ESE 0.0 9.4 0.3
00:55 17.4 14.0 91.2 1020.4 4.2 E 7.8 ESE 0.0 9.4 0.2
01:00 17.4 14.0 90.6 1020.3 3.5 ESE 6.0 E 0.0 9.5 0.1
01:05 17.3 14.1 90.5 1020.3 2.5 SSE 5.3 SSE 0.0 9.5 0.0
01:10 17.1 14.6 90.9 1020.3 2.9 SE 5.5 SSE 0.0 9.6 0.1
01:15 17.2 14.5 91.2 1020.4 1.2 SE 3.2 SE 0.0 9.6 0.0
01:20 17.2 14.4 91.2 1020.4 2.9 E 5.1 ESE 0.0 9.6 0.1
01:25 17.3 14.3 91.2 1020.3 3.1 SE 5.6 ESE 0.0 9.7 0.2
01:30 17.4 14.2 90.5 1020.3 3.8 ESE 5.3 E 0.0 9.7 0.2
01:35 17.4 14.1 90.4 1020.3 2.6 ESE 4.2 ESE 0.0 9.4 0.0
01:40 17.3 14.0 90.3 1020.3 3.4 E 5.2 ESE 0.0 9.7 0.0
01:45 17.1 13.9 90.6 1020.3 3.1 ESE 5.1 ESE 0.0 9.7 0.0
01:50 17.0 13.8 91.2 1020.3 2.5 E 4.3 ENE 0.0 9.9 0.1
01:55 16.9 13.7 91.6 1020.3 3.4 E 5.0 E 0.0 9.9 0.1
02:00 16.9 13.6 92.0 1020.4 2.2 SE 4.4 ESE 0.0 10.0 0.2
02:05 16.8 13.6 91.2 1020.4 2.6 SE 3.9 SE 0.0 10.0 0.0
02:10 16.6 13.8 91.5 1020.3 3.0 SSE 4.2 SSE 0.0 10.1 0.0
02:15 16.6 13.8 92.1 1020.2 2.1 SE 3.6 S 0.0 10.1 0.0
02:20 16.8 13.7 93.0 1020.2 2.4 ESE 4.4 E 0.0 10.1 0.2
02:25 16.7 13.6 92.4 1020.2 3.3 ESE 5.6 E 0.0 10.2 0.1
02:30 16.6 13.4 92.7 1020.2 3.8 E 5.9 ESE 0.0 10.2 0.0
02:35 16.6 13.6 93.1 1020.3 3.7 ENE 5.0 ENE 0.0 10.3 0.0
02:40 16.6 13.5 93.2 1020.2 2.1 SE 4.3 E 0.0 10.3 0.0
02:45 16.5 13.4 92.8 1020.3 1.8 SE 3.6 ESE 0.0 10.4 0.0
02:50 16.4 13.4 92.6 1020.3 1.6 SE 2.8 ESE 0.0 10.4 0.0
02:55 16.2 13.4 92.9 1020.3 1.6 SSE 2.7 SSE 0.0 10.4 0.0
03:00 16.2 13.5 93.0 1020.3 1.4 SE 2.7 ESE 0.0 10.5 0.0
03:05 16.1 13.3 93.3 1020.3 1.0 SE 1.6 SE 0.0 10.5 0.1
03:10 16.2 13.2 94.4 1020.3 1.9 SE 2.8 SSE 0.0 10.5 0.5
03:15 16.2 13.2 93.8 1020.3 1.8 SE 3.1 SSE 0.0 10.1 0.0
03:20 16.2 13.1 94.4 1020.3 2.7 E 4.0 ESE 0.0 10.6 0.1
03:25 16.2 13.0 94.4 1020.3 2.1 SE 3.6 ESE 0.0 10.7 0.0
03:30 16.0 13.0 93.8 1020.3 1.8 SE 3.5 SSE 0.0 10.8 0.0
03:35 15.9 13.0 94.1 1020.4 1.1 ESE 2.1 ESE 0.0 10.8 0.1
03:40 16.0 12.9 95.1 1020.4 1.5 ESE 3.0 ESE 0.0 10.8 0.2
03:45 16.1 12.7 94.9 1020.4 1.2 SSE 2.5 ESE 0.0 10.9 0.1
03:50 15.9 12.6 94.2 1020.4 1.7 S 3.3 SSE 0.0 10.9 0.0
03:55 15.7 12.7 94.2 1020.3 1.8 SE 3.5 SSE 0.0 11.0 0.0
04:00 15.8 12.7 95.1 1020.3 1.5 E 2.8 ENE 0.0 11.0 0.2
04:05 15.9 12.7 95.4 1020.2 2.0 SE 2.8 SE 0.0 11.1 0.1
04:10 15.8 12.7 95.1 1020.2 1.6 ENE 3.2 NE 0.0 10.7 0.0
04:15 15.8 12.7 95.4 1020.2 2.6 ESE 3.6 NE 0.0 11.1 0.0
04:20 15.9 12.7 95.6 1020.2 1.8 ESE 3.1 SE 0.0 11.2 0.0
04:25 15.9 12.8 95.3 1020.2 2.4 E 3.2 E 0.0 11.3 0.0
04:30 15.9 12.7 95.5 1020.2 1.9 SE 2.7 SE 0.0 11.3 0.0
04:35 15.9 12.5 95.3 1020.2 1.6 SE 3.7 SE 0.0 11.4 0.0
04:40 16.0 12.3 95.1 1020.2 1.1 SE 2.0 ESE 0.0 11.5 0.0
04:45 15.8 12.3 94.8 1020.2 1.0 SE 1.7 E 0.0 11.5 0.0
04:50 15.8 12.2 94.9 1020.2 0.9 SE 1.6 E 0.0 11.6 0.0
04:55 15.7 12.2 95.1 1020.2 1.2 SE 2.1 SE 0.0 11.6 0.0
05:00 15.5 12.2 94.5 1020.2 1.6 SE 2.4 SE 0.0 11.7 0.0
05:05 15.3 12.3 94.5 1020.2 1.4 SE 2.5 SSE 0.0 11.6 0.2
05:10 15.4 12.3 95.3 1020.2 1.5 SE 2.6 SE 0.0 11.7 1.2
05:15 15.4 12.2 95.5 1020.3 1.6 SE 2.6 ESE 0.0 11.8 1.8
05:20 15.5 12.0 95.7 1020.3 1.6 SE 2.3 SE 0.0 11.8 3.4
05:25 15.5 11.9 95.9 1020.3 2.0 SE 3.0 SE 0.0 11.9 5.3
05:30 15.5 11.9 95.8 1020.3 1.6 SE 2.4 SE 0.0 11.9 8.0
05:35 15.4 12.0 95.8 1020.3 1.2 ESE 2.1 ESE 0.0 12.0 11.2
05:40 15.5 12.0 95.9 1020.4 1.1 SE 2.1 SE 0.0 12.1 14.4
05:45 15.3 12.3 95.5 1020.5 0.8 ESE 2.1 S 0.0 12.1 17.7
05:50 15.3 12.5 95.8 1020.6 1.2 SSE 2.7 SSE 0.0 12.1 21.5
05:55 15.3 12.6 95.8 1020.5 0.8 SE 2.7 SSE 0.0 12.2 25.2
06:00 15.3 12.7 96.2 1020.6 0.7 ESE 1.6 SE 0.0 12.2 28.9
06:05 15.5 12.8 96.6 1020.6 1.4 SE 2.4 SE 0.0 12.3 32.2
06:10 15.5 13.0 96.1 1020.6 1.2 SSE 2.2 E 0.0 12.2 34.8
06:15 15.5 13.2 95.9 1020.8 0.9 S 1.4 SSE 0.0 12.3 38.3
06:20 15.6 13.4 95.9 1020.8 1.3 SSE 3.0 SE 0.0 12.2 41.7
06:25 15.7 13.7 95.9 1020.8 2.1 SSE 3.3 SSE 0.0 12.4 44.9
06:30 15.9 14.0 95.9 1020.9 1.5 S 2.8 SSE 0.0 12.4 47.7
06:35 16.0 14.2 95.9 1020.8 1.1 SSE 1.7 S 0.0 12.4 123.0
06:40 16.2 14.4 96.0 1020.9 0.8 S 1.3 S 0.0 12.4 185.3
06:45 16.4 14.7 96.0 1021.0 0.3 SSW 0.8 S 0.0 12.4 201.5
06:50 16.9 15.0 95.9 1021.1 0.9 S 2.3 S 0.0 12.4 217.3
06:55 17.7 15.4 93.6 1021.1 0.8 SSE 2.0 SSE 0.0 12.4 232.6
07:00 18.5 16.2 88.0 1021.1 1.9 S 3.5 S 0.0 12.4 247.4
07:05 19.5 16.6 81.8 1021.1 2.5 SSW 3.6 SSW 0.0 12.2 259.9
07:10 20.1 17.0 78.3 1021.1 2.5 SSW 4.6 SW 0.0 12.2 272.7
07:15 20.5 17.8 77.0 1021.1 3.5 SSW 6.3 SW 0.0 12.1 282.7
07:20 20.5 18.5 76.6 1021.1 3.8 SSW 5.6 SW 0.0 12.0 292.7
07:25 20.9 19.2 75.4 1021.1 2.5 S 4.2 SSW 0.0 11.9 307.2
07:30 21.8 19.8 73.8 1021.1 1.9 WSW 4.4 NW 0.0 11.8 324.3
07:35 20.8 19.9 76.7 1021.1 3.5 NW 5.6 NNW 0.0 11.7 340.3
07:40 20.1 20.2 79.4 1021.1 2.3 N 5.2 N 0.0 11.5 360.6
07:45 20.9 20.7 77.8 1021.0 1.5 E 4.2 WSW 0.0 11.4 377.4
07:50 21.4 20.8 74.8 1021.0 2.4 W 6.1 W 0.0 11.0 390.9
07:55 21.4 21.1 75.5 1021.1 2.3 WSW 4.7 WSW 0.0 11.2 402.2
08:00 21.1 21.3 75.7 1021.1 3.3 WNW 5.5 W 0.0 10.9 422.7
08:05 21.1 21.5 76.4 1021.1 3.0 WNW 5.8 NW 0.0 11.0 436.2
08:10 21.3 22.0 75.3 1021.2 2.5 N 6.3 N 0.0 10.9 450.2
08:15 21.9 22.9 73.9 1021.2 2.0 N 4.7 WSW 0.0 10.8 465.1
08:20 22.6 23.8 71.5 1021.3 3.2 W 6.0 NW 0.0 10.7 480.5
08:25 22.6 24.4 70.1 1021.3 2.5 WSW 5.1 SSW 0.0 10.5 494.5
08:30 22.4 25.0 71.1 1021.3 3.8 WNW 7.0 NW 0.0 10.4 509.6
08:35 22.1 25.5 71.3 1021.3 3.5 NNW 5.7 NNW 0.0 10.3 526.1
08:40 22.2 26.0 70.6 1021.3 2.7 NNW 5.0 WNW 0.0 10.2 541.3
08:45 22.5 27.0 68.7 1021.3 3.4 N 9.7 N 0.0 10.1 553.8
08:50 22.5 27.6 68.5 1021.3 3.8 NNW 6.3 NW 0.0 9.9 568.5
08:55 23.1 27.9 67.4 1021.4 2.6 NW 6.2 W 0.0 9.8 582.2
09:00 23.4 28.3 65.8 1021.4 2.6 NNW 5.5 NNW 0.0 9.7 594.3
09:05 23.6 28.9 64.7 1021.4 3.2 NNW 5.7 NNW 0.0 9.5 608.1
09:10 24.1 29.3 63.6 1021.4 3.2 N 6.3 N 0.0 9.5 621.2
09:15 24.3 29.8 62.0 1021.4 3.3 NNW 6.0 NW 0.0 9.3 635.4
09:20 24.6 29.8 61.7 1021.4 2.9 W 5.7 W 0.0 9.2 642.3
09:25 25.3 30.5 58.9 1021.4 3.3 SSE 6.6 S 0.0 9.1 656.7
09:30 25.5 30.6 57.9 1021.4 4.1 NW 6.9 NW 0.0 9.0 671.7
09:35 25.3 30.5 59.4 1021.4 3.5 W 6.9 WNW 0.0 8.5 685.9
09:40 25.7 30.8 57.1 1021.5 4.1 WNW 8.8 NW 0.0 8.8 692.8
09:45 25.8 31.3 55.6 1021.5 3.8 NNE 6.8 NNE 0.0 8.5 702.3
09:50 26.0 31.5 55.6 1021.5 4.6 W 9.8 W 0.0 8.6 714.0
09:55 26.3 31.5 53.5 1021.5 3.6 NW 7.2 NW 0.0 8.5 722.7
10:00 26.3 32.0 53.7 1021.5 3.2 WNW 5.6 W 0.0 8.3 734.9
10:05 27.0 32.8 51.6 1021.4 2.2 NNW 4.4 S 0.0 8.3 746.1
10:10 27.2 33.9 51.5 1021.4 4.1 NW 8.1 WNW 0.0 8.1 758.9
10:15 27.5 34.7 48.6 1021.4 2.5 NW 6.8 WNW 0.0 8.0 767.0
10:20 27.8 35.3 49.3 1021.3 4.0 W 8.7 WSW 0.0 7.9 756.2
10:25 28.5 36.2 45.2 1021.3 3.9 S 5.7 SSW 0.0 7.8 766.4
10:30 28.1 36.3 44.3 1021.2 2.7 N 5.6 NNW 0.0 7.6 755.3
10:35 28.1 37.1 43.8 1021.2 4.5 N 8.1 0.0 7.5 795.4
10:40 28.2 37.5 44.4 1021.1 4.3 NW 7.6 WNW 0.0 7.4 764.6
10:45 28.4 37.7 44.8 1021.1 3.3 WNW 8.1 S 0.0 7.2 776.7
10:50 29.0 39.2 42.5 1021.1 3.0 SSE 6.6 ESE 0.0 7.1 797.7
10:55 29.7 39.9 42.3 1021.0 3.4 S 6.5 SSE 0.0 7.0 817.0
11:00 29.7 40.0 41.7 1021.0 5.6 WNW 10.2 NW 0.0 6.8 827.0
11:05 29.8 40.3 42.4 1021.0 3.5 SW 5.9 SW 0.0 6.7 829.0
11:10 29.9 41.2 40.9 1020.9 3.5 N 6.9 N 0.0 6.6 840.0
11:15 29.5 41.2 41.6 1020.9 4.8 N 11.2 NW 0.0 6.5 791.0
11:20 29.5 41.3 41.5 1020.8 4.5 SSW 8.7 S 0.0 6.4 836.0
11:25 30.1 41.2 40.3 1020.8 3.5 WNW 8.4 NW 0.0 6.3 845.0
11:30 30.2 41.1 40.7 1020.8 4.4 WNW 12.6 W 0.0 6.2 849.0
11:35 30.5 41.6 40.4 1020.7 4.5 W 8.5 NW 0.0 6.1 850.0
11:40 31.2 42.0 37.9 1020.7 5.3 SSW 12.3 SSW 0.0 6.1 850.0
11:45 31.4 42.7 37.7 1020.6 4.7 S 8.4 S 0.0 5.9 849.0
11:50 31.2 42.5 38.1 1020.6 6.4 WNW 13.8 WNW 0.0 5.9 848.0
11:55 30.7 41.9 39.3 1020.5 5.5 NW 11.2 NW 0.0 5.8 850.0
12:00 31.2 43.2 38.4 1020.4 4.2 S 12.5 SSW 0.0 5.7 849.0
12:05 31.6 43.8 37.3 1020.4 6.1 W 20.2 WNW 0.0 4.9 846.0
12:10 31.7 43.4 36.4 1020.4 6.3 SSW 11.8 SSW 0.0 4.9 847.0
12:15 31.9 43.7 35.9 1020.3 5.2 W 13.9 NW 0.0 4.7 841.0
12:20 32.2 43.7 35.0 1020.3 8.0 SSW 19.0 SW 0.0 4.7 846.0
12:25 32.7 43.4 32.6 1020.3 9.4 S 18.6 SSW 0.0 4.5 849.0
Máxima 32.7 43.8 96.6 1021.5 9.4 S 20.2 WNW 0.0 12.4 850.0
Mínima 15.3 11.9 32.6 1020.2 4.5
Total 0.0